Ravensworth, United Kingdom

8:29 PM GMT on January 18, 2017 (GMT +0000)
Teesside

Weather History for EGNV - November, 2013

Change the Weather History Date:

Wednesday, November 13, 2013

  Actual Average Record
Temperature  
Mean Temperature 42 °F -  
Max Temperature 50 °F 46 °F 57 °F (2006)
Min Temperature 33 °F 35 °F 32 °F (1997)
Degree Days  
Heating Degree Days 24    
Moisture  
Dew Point 39 °F    
Average Humidity 80    
Maximum Humidity 93    
Minimum Humidity 66    
Precipitation  
Precipitation 0.00 in - - ()
Sea Level Pressure  
Sea Level Pressure 30.26 in    
Wind  
Wind Speed 11 mph ()    
Max Wind Speed 22 mph    
Max Gust Speed -    
Visibility 6.2 miles    
Events Rain    
Averages and records for this station are not official NWS values.
T = Trace of Precipitation, MM = Missing Value Source: Averaged Metar Reports

Daily Weather History Graph

Daily Weather History Graph

Search for Another Location

Airport or City:

Trip Planner

Search our weather history database for the weather conditions in past years. The results will help you decide how hot, cold, wet, or windy it might be!

Date:

Astronomy

Nov. 13, 2013 Rise Set
Actual Time 7:31 AM GMT 4:07 PM GMT
Civil Twilight 6:51 AM GMT 4:47 PM GMT
Nautical Twilight 6:08 AM GMT 5:31 PM GMT
Astronomical Twilight 5:26 AM GMT 6:13 PM GMT
Moon 2:20 PM GMT (11/13) 2:30 AM GMT (11/13)
Length of Visible Light 9h 55m
Length of Day
8h 35m
Waxing Gibbous, 83% of the Moon is Illuminated
Nov 13
Waxing Gibbous
Nov 17
Full
Nov 25
Last Quarter
Dec 3
New
Dec 9
First Quarter

Hourly Weather History & Observations

Time (GMT) Temp. Windchill Dew Point Humidity Pressure Visibility Wind Dir Wind Speed Gust Speed Precip Events Conditions
5:50 AM 35.6 °F 29.2 °F 33.8 °F 93% 30.42 in - South 8.1 mph - N/A   Clear
6:20 AM 37.4 °F 32.8 °F 35.6 °F 93% 30.42 in - South 5.8 mph - N/A   Clear
6:50 AM 35.6 °F 29.9 °F 33.8 °F 93% 30.42 in - South 6.9 mph - N/A   Clear
7:20 AM 33.8 °F 27.0 °F 32.0 °F 93% 30.42 in - SSE 8.1 mph - N/A   Clear
7:50 AM 35.6 °F 28.0 °F 33.8 °F 93% 30.42 in - South 10.4 mph - N/A   Clear
8:20 AM 37.4 °F 31.4 °F 35.6 °F 93% 30.42 in 6.2 mi SSW 8.1 mph - N/A   Partly Cloudy
8:50 AM 39.2 °F 33.0 °F 37.4 °F 93% 30.42 in 6.2 mi SSW 9.2 mph - N/A   Partly Cloudy
9:20 AM 42.8 °F 36.6 °F 39.2 °F 87% 30.42 in 6.2 mi South 11.5 mph - N/A   Partly Cloudy
9:50 AM 44.6 °F 37.4 °F 39.2 °F 81% 30.42 in 6.2 mi SSW 16.1 mph - N/A   Partly Cloudy
10:20 AM 44.6 °F 38.4 °F 41.0 °F 87% 30.42 in 6.2 mi South 12.7 mph - N/A   Partly Cloudy
10:50 AM 46.4 °F 39.8 °F 41.0 °F 81% 30.39 in 6.2 mi SSW 16.1 mph - N/A   Scattered Clouds
11:20 AM 46.4 °F 41.1 °F 41.0 °F 81% 30.39 in 6.2 mi South 11.5 mph - N/A   Scattered Clouds
11:50 AM 48.2 °F - 41.0 °F 76% 30.36 in 6.2 mi SSW 15.0 mph - N/A   Mostly Cloudy
12:20 PM 48.2 °F - 41.0 °F 76% 30.36 in 6.2 mi South 15.0 mph - N/A   Scattered Clouds
12:50 PM 48.2 °F - 41.0 °F 76% 30.33 in 6.2 mi SSW 17.3 mph - N/A   Scattered Clouds
1:20 PM 48.2 °F - 39.2 °F 71% 30.33 in 6.2 mi SSW 13.8 mph - N/A   Partly Cloudy
1:50 PM 50.0 °F - 39.2 °F 66% 30.30 in 6.2 mi SW 17.3 mph - N/A   Partly Cloudy
2:20 PM 50.0 °F - 39.2 °F 66% 30.27 in 6.2 mi SW 18.4 mph - N/A   Partly Cloudy
2:50 PM 48.2 °F - 39.2 °F 71% 30.27 in 6.2 mi SW 13.8 mph - N/A   Partly Cloudy
3:20 PM 48.2 °F - 39.2 °F 71% 30.24 in 6.2 mi SW 17.3 mph - N/A   Partly Cloudy
3:50 PM 48.2 °F - 39.2 °F 71% 30.21 in 6.2 mi SSW 15.0 mph - N/A   Scattered Clouds
4:20 PM 48.2 °F - 39.2 °F 71% 30.21 in 6.2 mi South 13.8 mph - N/A   Mostly Cloudy
4:50 PM 48.2 °F - 39.2 °F 71% 30.18 in 6.2 mi SW 18.4 mph - N/A   Mostly Cloudy
5:20 PM 48.2 °F - 41.0 °F 76% 30.15 in 6.2 mi SSW 17.3 mph - N/A   Scattered Clouds
5:50 PM 48.2 °F - 41.0 °F 76% 30.12 in 6.2 mi South 18.4 mph - N/A   Scattered Clouds
6:20 PM 46.4 °F 40.7 °F 39.2 °F 76% 30.12 in 6.2 mi South 12.7 mph - N/A   Partly Cloudy
6:50 PM 46.4 °F 40.4 °F 39.2 °F 76% 30.09 in 6.2 mi South 13.8 mph - N/A   Scattered Clouds
7:20 PM 46.4 °F 40.7 °F 39.2 °F 76% 30.09 in 6.2 mi South 12.7 mph - N/A   Scattered Clouds
7:50 PM 46.4 °F 39.0 °F 39.2 °F 76% 30.06 in 6.2 mi SSW 19.6 mph - N/A   Partly Cloudy
8:20 PM 46.4 °F 38.5 °F 39.2 °F 76% 30.04 in 6.2 mi SSW 21.9 mph - N/A   Partly Cloudy
8:50 PM 46.4 °F 39.2 °F 39.2 °F 76% 30.01 in 6.2 mi SSW 18.4 mph - N/A   Partly Cloudy
9:20 PM 46.4 °F 39.5 °F 41.0 °F 81% 30.01 in 6.2 mi South 17.3 mph - N/A   Partly Cloudy
9:50 PM 46.4 °F 39.2 °F 41.0 °F 81% 29.98 in 6.2 mi South 18.4 mph - N/A Rain Light Rain Showers